Location: Roma
(41.9000°N, 12.4833°E)
Time: 21:48:04
(UTC+00:00)

Daily predictions for brighter satellites

Satellite Brightness Start Highest point End
(mag) Time Altitude Azimuth Time Altitude Azimuth Time Altitude Azimuth
Meteor 1-25 Rocket 4.3 18:18:12 10° S 18:23:55 80° E 18:29:44 10° NNE
CZ-2D R/B 4.3 18:23:00 10° S 18:26:45 51° W 18:30:30 10° NNW
SJ 16-02 3.2 18:26:40 10° ESE 18:28:18 12° E 18:29:56 10° ENE
HJ-1C 3.6 18:25:04 10° S 18:28:21 72° W 18:31:41 10° NNW
Unknown 4.5 18:25:00 10° WNW 18:29:00 47° SW 18:32:58 10° SSE
Cosmos 1703 Rocket 4.5 18:28:27 10° NNW 18:32:47 53° W 18:37:04 10° S
Ariane Rocket 3.8 18:27:57 10° S 18:32:54 56° W 18:37:53 10° NNW
FREGAT/IRIS 2.6 18:33:13 10° S 18:36:00 76° W 18:38:49 10° NNW
USA 267 3.6 18:29:36 10° NE 18:36:08 73° NW 18:42:39 10° WSW
Cosmos 1980 Rocket 4.4 18:36:22 10° NE 18:36:55 10° NE 18:37:27 10° NE
CZ-2C R/B 4.3 18:34:38 10° ESE 18:38:06 21° ENE 18:41:37 10° NNE
Cosmos 1538 Rocket 4.3 18:32:59 10° NNW 18:38:08 72° WSW 18:43:17 10° S
ARGOS 3.7 18:33:49 10° SE 18:38:44 39° ENE 18:43:41 10° N
Cosmos 1680 Rocket 4.1 18:35:16 10° N 18:40:12 40° ENE 18:45:04 10° SE
H-2A R/B 2.4 18:39:11 10° SE 18:43:53 43° ENE 18:48:33 10° N
Meteor 1-19 Rocket 4.4 18:40:05 10° N 18:45:48 63° ENE 18:51:38 10° SSE
Meteor 1-14 Rocket 4.4 18:41:52 10° S 18:47:50 86° W 18:53:48 10° N
Cosmos 2292 Rocket 3.7 18:43:45 10° NNW 18:48:09 64° W 18:51:33 10° S
COSMOS 2406 3.4 18:42:53 10° S 18:48:22 51° ESE 18:53:53 10° NE
Cosmos 44 Rocket 3.5 18:43:51 10° NNW 18:48:31 52° NE 18:52:30 13° SE
OAO 3 Rocket 4.1 18:44:33 10° WSW 18:48:59 35° S 18:52:39 14° SE
EXPRESS MD2 4.4 18:46:37 10° WNW 18:51:36 36° N 18:54:14 12° ENE
Okean 1 3.4 18:48:36 10° N 18:52:35 81° W 18:56:33 10° S
Cosmos 1602 3.8 18:51:04 10° SSW 18:54:53 77° W 18:58:43 10° N
Cosmos 1500 4.2 18:56:33 14° SE 18:59:09 26° E 19:02:24 10° NNE
Exosat Rocket 4.3 18:52:41 10° NNW 19:00:52 67° ENE 19:06:07 13° SE
Abrixas rocket 4.1 18:58:28 10° WNW 19:01:05 25° N 19:03:42 10° NE
Cosmos 1733 Rocket 2.9 18:58:31 10° S 19:02:47 67° E 19:07:05 10° NNE
Resurs 01 Rocket 2.2 18:59:47 15° SE 19:02:59 39° ENE 19:07:04 10° N
Aureole 3 Rocket 3.4 19:02:43 17° SE 19:04:45 28° E 19:07:30 10° NNE
BREEZE M DEB (TANK) 1.2 19:03:36 10° SW 19:05:37 53° SE 19:08:28 10° ENE
Cosmos 990 Rocket 4.2 19:03:17 10° S 19:08:13 45° ESE 19:13:10 10° NNE
USA 234 3.3 19:03:53 16° ESE 19:09:16 72° NE 19:15:50 10° NW
Cosmos 1674 Rocket 3.7 19:05:48 10° N 19:10:01 50° E 19:13:01 18° SSE
Cosmos 1937 Rocket 4.0 19:06:26 10° SSE 19:11:18 38° ESE 19:16:12 10° NE
Cosmos 2098 Rocket 4.4 19:06:55 10° NNE 19:11:27 33° ENE 19:14:46 20° SE
Spot 2 Rocket 4.3 19:10:44 20° ESE 19:13:28 33° ENE 19:17:59 10° N
SJ-6B 3.8 19:12:47 10° S 19:16:38 49° W 19:20:35 10° NNW
Cosmos 1346 Rocket 4.5 19:20:17 17° ENE 19:20:17 17° ENE 19:22:03 10° NE
Meteor 2-4 Rocket 3.5 19:15:04 10° N 19:20:27 79° E 19:25:14 13° SSE
Aureole 2 Rocket 3.5 19:19:10 10° NW 19:21:33 30° WSW 19:23:28 13° SSW
Okean 3 3.9 19:21:06 10° NNW 19:25:14 60° W 19:29:22 10° S
Cosmos 1536 3.0 19:28:56 26° SSE 19:30:57 52° E 19:34:55 10° NNE
Cosmos 1553 Rocket 4.3 19:25:04 10° SSW 19:31:18 71° W 19:37:41 10° N
Shenzhou-11 Module 1.9 19:28:34 10° W 19:31:21 70° N 19:31:46 56° ENE
Cosmos 1975 Rocket 4.3 19:29:01 10° NNE 19:32:42 25° ENE 19:33:06 25° E
TSX-5 4.0 19:29:41 10° NNW 19:33:20 68° WSW 19:35:44 25° SSE
Cosmos 1656 3.7 19:28:03 10° NNW 19:33:44 68° ENE 19:36:39 29° SE
SL-08 ROCKET BODY 4.3 19:31:00 10° N 19:36:51 63° E 19:40:14 25° SSE
Cosmos 1833 Rocket 2.6 19:35:28 10° S 19:41:00 60° ESE 19:46:32 10° NNE
SL-24 R/B 4.1 19:39:04 29° SSE 19:41:24 79° ENE 19:45:46 10° N
ADEOS Rocket 3.2 19:36:45 10° NNE 19:42:56 83° WNW 19:49:48 10° SSW
Cosmos 1515 4.2 19:39:19 10° NNW 19:43:04 57° W 19:45:20 22° SSW
Cosmos 2112 Rocket 4.3 19:39:47 10° NNW 19:44:58 64° WSW 19:48:18 22° S
Cosmos 2082 Rocket 2.4 19:44:11 21° S 19:47:41 47° ESE 19:53:05 10° NE
DMSP B5D2-2 4.0 19:42:50 10° NNE 19:48:07 75° ESE 19:52:34 15° S
Cosmos 2298 Rocket 4.4 19:47:43 38° SE 19:48:32 40° ESE 19:53:29 10° NE
Cosmos 1709 Rocket 3.9 19:48:12 10° N 19:54:19 68° E 19:57:06 34° SSE
MetOp-A 4.4 19:51:00 21° S 19:54:36 68° WSW 19:59:57 10° NNW
GP-B 3.0 19:51:01 10° N 19:55:29 81° E 19:56:55 43° S
Cosmos 2278 4.0 19:50:11 10° NNW 19:55:43 52° ENE 19:57:20 40° ESE
Cosmos 1666 3.3 19:57:54 42° NE 19:57:54 42° NE 20:00:50 10° NNE
Cosmos 1697 Rocket 2.7 19:52:14 10° NNW 19:57:53 63° ENE 19:59:36 43° SE
SL-16 R/B 4.2 19:58:13 10° NNE 20:01:17 15° NE 20:02:50 13° ENE
CZ-2C R/B 2.7 19:56:07 10° NNE 20:01:21 56° E 20:02:40 44° SSE
USA 229 DEB 4.2 19:56:02 10° NNW 20:03:07 54° NE 20:06:07 35° ESE
USA 229 4.2 19:56:09 10° NNW 20:03:14 53° NE 20:06:12 35° ESE
Cosmos 1908 Rocket 3.9 20:01:56 21° SSW 20:04:53 65° W 20:09:20 10° N
Meteor 1-11 Rocket 4.3 19:59:27 10° SSW 20:05:18 61° WNW 20:11:14 10° N
SJ 16-02 1.8 20:01:56 10° SSW 20:06:18 61° WNW 20:10:41 10° NNE
Cosmos 1066 Rocket 4.1 20:02:58 10° N 20:08:20 62° ENE 20:09:16 53° ESE
Terra 3.3 20:10:05 23° ENE 20:10:05 23° ENE 20:13:28 10° NNE
Cosmos 2315 Rocket 3.9 20:08:12 23° S 20:12:22 88° E 20:18:44 10° N
Cosmos 1900 4.2 20:08:55 10° NNW 20:13:56 82° WSW 20:14:42 63° SSE
CZ-2C R/B 3.8 20:15:26 26° SSW 20:17:40 43° W 20:22:15 10° NNW
ERS-1 Rocket 3.1 20:18:46 55° E 20:18:58 55° ENE 20:23:52 10° N
Geosat 4.0 20:19:39 58° E 20:20:08 61° ENE 20:25:06 10° NNW
Okean 2 Rocket 4.2 20:22:46 32° NE 20:22:46 32° NE 20:25:27 10° NNE
Meteor 2-16 Rocket 4.4 20:15:45 10° N 20:21:54 80° W 20:24:06 42° S
Cosmos 1980 Rocket 2.3 20:16:41 10° NNW 20:22:15 55° ENE 20:22:50 52° E
ASTEX 1 4.3 20:17:41 10° N 20:22:24 46° WNW 20:25:47 18° SW
H-2A R/B 4.1 20:19:40 10° SW 20:23:29 22° W 20:27:16 10° NW
Thor Agena Rocket 4.0 20:23:43 10° NNE 20:27:48 45° ENE 20:27:48 45° ENE
Uosat 12 SS-18 rocket 4.2 20:24:17 10° NNW 20:29:44 83° NE 20:29:46 83° ENE
MOS 1 Rocket 4.4 20:27:19 10° NNE 20:31:17 38° ENE 20:31:17 38° ENE
Sich 1 Rocket 3.8 20:36:06 65° W 20:36:13 65° W 20:40:40 10° N
Resurs 01 Rocket 3.9 20:37:22 14° SW 20:39:36 19° W 20:42:46 10° NW
Cosmos 1867 4.4 20:34:44 10° NNW 20:39:47 37° NE 20:39:59 36° NE
Cosmos 2369 4.3 20:39:09 10° NW 20:44:34 48° WSW 20:45:32 43° SW
SPOT 5 3.4 20:46:29 47° N 20:46:29 47° N 20:49:41 10° N
Cosmos 1340 4.3 20:49:56 33° NW 20:49:56 33° NW 20:52:42 10° N
USA 234 4.2 20:51:14 30° SSW 20:52:35 33° SW 20:58:24 10° WNW
NOSS 3-1 (C) 4.0 20:47:40 10° NW 20:55:21 88° NE 20:57:08 61° SE
Cosmos 372 Rocket 4.2 20:57:45 64° W 20:57:56 64° WNW 21:03:08 10° NNE
CZ-4C R/B 3.7 21:11:28 24° NE 21:11:28 24° NE 21:13:51 10° NE
Cosmos 2322 Rocket 3.2 21:07:48 10° N 21:12:15 37° NE 21:12:15 37° NE
Cosmos 2327 Rocket 4.5 21:09:00 10° N 21:15:08 81° NNE 21:15:08 81° NNE
Mayak 1.5 21:22:47 10° NNE 21:23:04 12° NNE 21:23:04 12° NNE
Cosmos 2082 Rocket 4.1 21:27:14 10° WSW 21:31:59 27° NW 21:36:46 10° N
Nadezhda 1 Rocket 4.2 21:34:44 66° NW 21:34:44 66° NW 21:40:17 10° N
Cosmos 2154 Rocket 4.2 21:32:39 10° N 21:38:05 67° NNW 21:38:05 67° NNW
SL-16 R/B 3.0 21:40:37 10° NNW 21:44:41 48° NNW 21:44:41 48° NNW
Terra 3.6 21:48:59 28° NW 21:48:59 28° NW 21:51:41 10° NNW
NOSS 3-1 (A) 4.3 21:50:09 10° NW 21:57:30 61° WSW 21:57:30 61° WSW
Cosmos 2360 Rocket 3.4 21:55:36 10° NNW 21:59:18 36° NNE 21:59:18 36° NNE
Cosmos 2219 Rocket 4.2 22:01:33 10° N 22:04:59 19° NE 22:04:59 19° NE
Cosmos 1980 Rocket 4.2 22:01:39 10° NW 22:04:36 20° W 22:04:36 20° W
FALCON 9 R/B 4.3 22:03:32 10° WSW 22:16:09 39° WSW 22:16:09 39° WSW
Lacrosse 4 Rocket 4.4 22:25:28 10° N 22:26:03 13° N 22:26:03 13° N
ATLAS 2AS CENTAUR R/B 4.4 22:39:46 10° NNW 22:46:27 30° NE 22:49:22 23° ENE
Cosmos 2322 Rocket 4.3 22:52:07 10° NW 22:54:03 19° WNW 22:54:03 19° WNW
CZ-4C R/B 4.0 22:56:35 24° NW 22:57:15 25° NW 23:02:12 10° NNE
Mayak 1.8 22:59:13 10° NNW 22:59:38 12° NNW 22:59:38 12° NNW
Cosmos 2333 Rocket 3.7 22:57:55 10° NNW 23:01:12 32° N 23:01:12 32° N
SL-16 R/B 4.3 23:32:36 21° ENE 23:33:32 22° ENE 23:38:04 10° NNE
Cosmos 2227 Rocket 4.2 23:40:16 20° ENE 23:40:16 20° ENE 23:42:27 10° NE
COSMOS 2455 4.3 23:40:35 10° NNW 23:43:29 30° NW 23:43:29 30° NW
Cosmos 2219 Rocket 4.0 23:44:25 10° NNW 23:46:41 25° NNW 23:46:41 25° NNW
Cosmos 2297 Rocket 3.9 23:55:27 27° NE 23:55:27 27° NE 23:58:17 10° NE
